SCP
0 0 1 1 1 0 0 0 0 0 0 0 0 0 0 0 0 0 0 0 0 0 0 0 0 0 0 0 0 0 0 0 0 0 0 0 0 0 0 0 0 0 0 0 0 0 0 0 0
0 0 1 1 0 0 0 0 0 0 0 0 0 0 0 0 0 0 0 0 0 0 0 0 0 0 0 0 0 0 0 0 0 0 0 0 0 0 0 0 0 0 0 0 0 0 0 0 0
0 1 1 1 0 0 0 0 0 0 0 0 0 0 0 0 0 0 0 0 0 0 0 0 0 0 0 0 0 0 0 0 0 0 0 0 0 0 0 0 0 0 0 0 0 0 0 0 0
1 1 1 0 0 0 0 0 0 0 0 0 0 0 0 0 0 0 0 0 0 0 0 0 0 0 0 0 0 0 0 0 0 0 0 0 0 0 0 0 0 0 0 0 0 0 0 0 0
1 1 0 0 0 0 0 0 0 0 0 0 0 0 0 0 0 0 0 0 0 0 0 0 0 0 0 0 0 0 0 0 0 0 0 0 0 0 0 0 0 0 0 0 0 0 0 0 0
0 0 0 0 0 0 0 0 0 0 0 0 0 0 0 0 0 0 0 0 0 0 0 0 0 0 0 0 0 0 0 0 0 0 0 0 0 0 0 0 0 0 0 0 0 0 0 0 0
0 0 0 0 0 0 0 0 0 0 0 0 0 0 0 0 0 0 0 0 0 0 0 0 0 0 0 0 0 0 0 0 0 0 0 0 0 0 0 0 0 0 0 0 0 0 0 0 0
0 0 0 0 0 0 0 0 0 0 0 0 0 0 0 0 0 0 0 0 0 0 0 0 0 0 0 0 0 0 0 0 0 0 0 0 0 0 0 0 0 0 0 0 0 0 0 0 0
0 0 0 0 0 0 0 0 0 0 0 0 0 0 0 0 0 0 0 0 0 0 0 0 0 0 0 0 0 0 0 0 0 0 0 0 0 0 0 0 0 0 0 0 0 0 0 0 0
0 0 0 0 0 0 0 0 0 0 0 0 0 0 0 0 0 0 0 0 0 0 0 0 0 0 0 0 0 0 0 0 0 0 0 0 0 0 0 0 0 0 0 0 0 0 0 0 0
0 0 0 0 0 0 0 0 0 0 0 0 0 0 0 0 0 0 0 0 0 0 0 0 0 0 0 0 0 0 0 0 0 0 0 0 0 0 0 0 0 0 0 0 0 0 0 0 0
0 0 0 0 0 0 0 0 0 0 0 0 0 0 0 0 0 0 0 0 0 0 0 0 0 0 0 0 0 0 0 0 0 0 0 0 0 0 0 0 0 0 0 0 0 0 0 0 0
0 0 0 0 0 0 0 0 0 0 0 0 0 0 0 0 0 0 0 0 0 0 0 0 0 0 0 0 0 0 0 0 0 0 0 0 0 0 0 0 0 0 0 0 0 0 0 0 0
0 0 0 0 0 0 0 0 0 0 0 0 0 0 0 0 0 0 0 0 0 0 0 0 0 0 0 0 0 0 0 0 0 0 0 0 0 0 0 0 0 0 0 0 0 0 0 0 0
0 0 0 0 0 0 0 0 0 0 0 0 0 0 0 0 0 0 0 0 0 0 0 0 0 0 0 0 0 0 0 0 0 0 0 0 0 0 0 0 0 0 0 0 0 0 0 0 0
0 0 0 0 0 0 0 0 0 0 0 0 0 0 0 0 0 0 0 0 0 0 0 0 0 0 0 0 0 0 0 0 0 0 0 0 0 0 0 0 0 0 0 0 0 0 0 0 0
0 0 0 0 0 0 0 0 0 0 0 0 0 0 0 0 0 0 0 0 0 0 0 0 0 0 0 0 0 0 0 0 0 0 0 0 0 0 0 0 0 0 0 0 0 0 0 0 0
0 0 0 0 0 0 0 0 0 0 0 0 0 0 0 0 0 0 0 0 0 0 0 0 0 0 0 0 0 0 0 0 0 0 0 0 0 0 0 0 0 0 0 0 0 0 0 0 0
0 0 0 0 0 0 0 0 0 0 0 0 0 0 0 0 0 0 0 0 0 0 0 0 0 0 0 0 0 0 0 0 0 0 0 0 0 0 0 0 0 0 0 0 0 0 0 0 0
0 0 0 0 0 0 0 0 0 0 0 0 0 0 0 0 0 0 0 0 0 0 0 0 0 0 0 0 0 0 0 0 0 0 0 0 0 0 0 0 0 0 0 0 0 0 0 0 0
0 0 0 0 0 0 0 0 0 0 0 0 0 0 0 0 0 0 0 0 0 0 1 0 1 1 0 0 0 0 0 0 0 0 0 0 0 0 0 0 0 0 0 0 0 0 0 0 0
0 0 0 0 0 0 0 0 0 0 0 0 0 0 0 0 0 0 0 0 0 0 1 1 1 1 1 0 0 0 0 0 0 0 0 0 0 0 0 0 0 0 0 0 0 0 0 0 0
0 0 0 0 0 0 0 0 0 0 0 0 0 0 0 0 0 0 0 0 0 0 1 1 1 1 1 1 0 0 0 0 0 0 0 0 0 0 0 0 0 0 0 0 0 0 0 0 0
0 0 0 0 0 0 0 0 0 0 0 0 0 0 0 0 0 0 0 1 0 0 1 1 1 1 1 1 1 0 0 0 0 0 0 0 0 0 0 0 1 1 0 0 0 0 0 0 0
0 0 0 0 0 0 0 0 0 0 0 0 0 0 0 0 0 0 1 1 1 1 1 1 1 1 1 1 1 1 1 0 0 0 0 0 0 1 1 1 1 1 1 0 1 1 1 1 0
0 0 0 0 0 0 0 0 0 0 0 0 0 0 0 0 0 0 1 1 1 1 1 1 1 1 1 1 1 1 1 1 0 0 0 0 0 1 1 1 1 1 1 0 1 1 1 1 1
0 0 0 0 0 0 0 0 0 0 0 0 0 0 0 0 0 0 0 1 1 1 1 1 1 1 1 1 1 1 1 1 1 1 1 1 1 1 1 1 1 1 1 1 1 1 1 1 1
0 0 0 0 0 0 0 0 0 0 0 0 0 0 0 0 0 0 0 1 1 1 1 1 1 2 2 1 1 1 1 1 1 1 1 1 1 1 1 1 1 1 1 1 1 1 1 1 1
0 0 0 0 0 0 0 0 0 0 0 0 0 0 0 0 0 0 0 1 1 1 1 1 1 2 2 1 1 1 1 1 1 1 1 1 1 1 1 1 1 1 1 1 0 0 1 1 1
0 0 0 0 0 0 0 0 0 0 0 0 0 0 0 0 0 0 0 1 1 1 1 1 1 2 2 2 2 1 1 1 1 1 1 1 1 1 1 1 1 1 1 0 0 0 0 1 1
Wind_Speed
9 10 9 6 4 1 10 13 13 12 12 11 11 12 14 14 10 9 7 9 12 12 11 10 10 10 9 9 8 8 8 8 7 7 8 8 9 9 9 9 9 10 10 10 10 10 9 9 9
8 10 7 5 3 5 12 12 13 12 10 10 12 14 14 14 12 11 9 8 11 12 10 10 10 9 9 8 8 7 7 8 7 7 8 8 8 8 8 8 8 9 10 9 9 9 9 9 8
11 12 6 4 5 10 12 12 11 11 9 10 12 13 12 11 12 10 9 9 11 11 11 11 10 9 9 8 7 7 7 7 7 7 8 8 8 8 7 7 7 8 9 8 8 8 9 8 8
8 6 5 1 12 13 12 10 10 10 10 11 11 11 12 10 9 11 10 9 10 11 12 11 11 10 8 8 7 7 6 7 7 7 7 8 8 7 7 7 7 8 8 8 7 8 8 8 7
7 6 3 4 12 13 11 11 10 10 10 12 13 13 12 11 11 11 9 9 10 11 12 12 11 10 9 8 7 7 7 7 7 7 7 7 7 7 7 7 7 7 7 7 7 7 7 7 6
5 4 2 7 11 11 10 10 10 11 11 11 13 12 10 9 10 9 8 8 10 10 12 12 11 10 9 8 8 8 7 7 7 6 6 6 6 6 6 6 7 6 6 7 7 7 7 6 6
5 4 2 7 8 9 10 9 10 10 10 9 10 11 10 9 9 8 7 8 9 10 10 10 9 9 10 9 8 8 8 7 7 6 6 6 5 6 6 7 7 7 6 6 6 7 6 6 6
4 4 4 6 8 9 10 10 10 10 10 8 8 9 9 10 9 9 8 8 8 8 8 9 8 8 8 9 9 8 7 6 6 6 5 5 5 5 6 7 7 7 7 7 6 6 6 7 7
3 2 4 6 7 8 8 9 9 10 9 9 11 13 13 12 10 9 8 7 7 6 5 6 7 6 6 8 9 8 7 6 5 5 5 4 3 3 4 7 9 8 8 7 7 7 7 7 7
1 2 6 7 8 8 7 8 7 8 10 11 13 15 13 12 10 9 8 8 7 4 5 5 6 5 4 5 6 4 4 4 3 2 3 2 2 2 4 6 7 8 8 7 7 7 6 6 4
1 4 5 7 7 6 7 7 6 7 9 11 13 13 12 11 10 9 8 8 7 4 4 5 5 5 4 3 4 2 2 3 3 3 2 2 2 2 3 3 3 4 6 4 5 4 3 3 2
2 3 5 6 6 5 6 7 8 10 11 12 13 13 11 10 8 8 8 8 7 5 5 5 5 4 3 3 2 2 2 2 2 2 1 2 1 1 2 2 2 2 2 2 2 2 2 2 1
1 3 4 4 5 6 7 8 9 11 12 13 13 12 10 9 8 8 8 8 6 5 6 6 5 4 3 2 1 2 2 2 2 2 2 2 2 1 1 1 1 1 2 3 2 2 2 2 1
3 2 2 3 5 5 7 7 7 9 10 12 12 11 10 9 9 8 8 7 6 6 6 5 5 4 3 2 1 1 1 2 2 2 2 2 2 1 1 1 1 1 1 2 2 2 2 2 2
2 4 4 4 5 6 7 5 6 9 10 10 11 10 9 8 8 8 8 7 7 6 6 5 5 5 3 2 0 1 1 3 2 2 2 2 2 1 0 1 2 1 1 2 2 2 1 2 2
7 6 3 5 6 6 5 5 7 9 10 10 10 10 9 8 8 8 8 7 7 6 6 5 4 5 3 2 0 1 1 2 2 2 2 2 2 1 0 0 1 1 2 2 2 2 1 2 2
8 6 5 6 5 5 4 7 9 8 9 10 9 9 9 9 8 8 8 8 8 7 6 5 3 4 3 2 1 1 2 2 2 2 2 2 1 1 0 0 1 1 1 1 2 2 2 2 2
5 3 3 4 5 3 2 5 9 9 8 9 10 10 9 10 9 9 9 9 8 7 6 5 3 3 3 2 1 0 2 2 2 2 2 2 1 1 0 1 1 1 2 1 1 2 2 2 2
6 3 2 3 1 1 1 3 7 8 9 9 10 11 10 10 11 10 9 9 9 7 6 5 3 3 2 1 1 1 1 1 1 2 3 2 1 1 1 1 1 1 2 2 2 2 2 2 2
7 4 5 4 2 1 2 3 5 7 10 11 12 11 11 10 11 10 10 9 9 8 7 6 4 3 3 1 1 1 1 1 2 1 2 2 1 1 1 1 1 1 1 2 1 2 1 1 1
8 6 6 4 4 4 4 5 4 6 6 9 11 11 12 12 12 12 11 10 10 9 8 6 5 4 3 3 2 1 1 1 1 2 2 2 1 1 2 2 1 1 1 2 1 1 1 1 1
7 5 6 6 8 7 8 3 4 6 7 8 10 12 13 13 13 13 12 11 10 10 9 7 6 4 4 3 2 2 2 1 1 1 2 2 1 1 2 2 1 1 1 2 1 2 0 1 1
7 5 7 7 8 9 8 4 3 6 8 8 9 11 12 13 14 14 13 11 10 10 10 9 7 5 4 3 2 2 1 1 1 1 2 2 2 1 2 2 1 1 1 1 1 1 0 0 1
7 9 8 7 8 10 8 6 3 6 9 9 9 11 11 12 13 13 13 11 10 10 10 10 8 6 5 5 4 2 2 1 1 1 1 2 2 1 1 2 1 1 1 1 1 1 1 1 1
10 9 6 6 7 7 5 6 3 5 8 9 9 10 11 12 12 13 14 13 11 10 10 10 9 7 6 5 5 4 3 3 2 1 1 1 1 1 2 1 1 1 1 1 1 1 1 1 1
12 11 8 7 6 4 5 3 2 3 6 9 11 10 10 10 11 12 13 13 12 11 10 10 10 8 7 6 5 4 4 3 2 2 2 1 1 1 2 2 1 1 1 1 1 2 2 2 1
11 10 10 10 10 7 3 1 2 3 4 7 9 9 10 9 10 11 13 12 12 12 11 11 10 9 8 7 5 5 4 3 2 2 2 1 0 1 2 2 1 1 1 1 2 1 2 2 2
12 10 7 7 6 7 4 4 3 4 4 5 7 8 8 9 10 10 10 10 10 11 11 11 11 9 8 7 7 6 5 4 3 2 1 1 1 1 1 0 0 0 1 1 2 2 2 2 2
12 12 8 7 7 8 5 3 5 7 7 6 7 7 7 7 9 9 9 9 9 10 11 10 10 9 8 7 6 5 6 5 4 3 2 1 1 1 1 1 1 1 1 1 1 2 2 2 2
11 11 10 7 7 9 7 3 2 4 4 4 6 7 6 5 6 8 8 8 8 8 9 9 9 9 9 7 6 5 5 5 5 4 3 2 2 2 2 1 1 1 1 1 2 2 2 2 2
Wind_Direction
205 221 226 242 251 238 61 62 65 64 61 58 55 64 60 54 59 83 98 99 106 107 108 103 97 99 99 97 97 96 100 98 102 110 114 116 117 119 121 122 124 127 129 130 132 133 137 134 130
231 232 238 241 259 62 64 64 66 68 72 75 67 68 66 67 76 94 101 105 108 108 107 105 104 102 102 100 97 96 102 101 101 108 115 118 118 120 122 123 127 130 130 131 133 131 130 132 133
252 251 258 245 50 60 66 67 73 79 78 79 75 65 60 72 85 96 109 112 108 108 107 111 115 111 107 106 104 102 100 103 102 108 114 118 117 116 118 120 127 133 134 134 136 140 138 138 139
242 243 242 327 68 66 71 77 79 81 77 76 81 76 70 69 87 109 118 112 109 111 109 117 120 116 113 114 111 108 106 107 108 108 111 116 115 117 119 123 131 138 139 138 137 139 141 145 150
244 262 257 70 74 73 73 77 78 78 76 77 83 88 82 83 99 112 118 114 109 108 112 123 124 121 118 115 110 105 106 110 111 114 115 115 116 116 115 121 129 138 143 143 141 142 148 154 161
268 269 349 68 75 77 73 75 81 78 84 91 97 97 89 100 104 105 105 104 105 109 112 121 128 127 123 119 112 106 105 109 113 116 116 120 123 123 123 130 136 140 145 150 152 156 159 165 176
261 299 71 89 88 82 76 70 76 79 80 86 102 100 105 114 116 112 111 104 102 108 116 125 136 136 133 125 120 117 115 116 120 120 123 127 129 137 141 143 146 148 151 154 160 166 171 180 190
276 313 39 74 84 80 80 75 74 80 76 80 96 103 118 126 127 120 108 98 98 102 114 131 134 135 136 136 134 130 130 134 131 130 133 134 143 153 158 156 156 159 158 161 167 173 181 187 197
275 314 48 67 79 88 90 89 85 87 87 79 75 98 118 129 127 120 114 106 96 96 108 123 123 132 137 137 135 145 148 150 149 153 160 164 170 165 155 147 156 165 166 173 180 186 192 195 204
186 58 55 62 75 94 100 102 106 104 102 96 93 102 116 126 127 124 118 115 102 108 121 110 104 106 108 118 131 146 150 149 169 148 162 172 152 144 130 134 154 167 174 183 193 197 197 204 211
79 66 68 72 80 91 98 97 109 111 114 114 115 119 126 131 133 130 125 119 116 120 101 93 97 95 98 110 128 135 145 140 154 146 152 145 145 131 126 140 157 172 180 190 185 195 204 198 193
84 76 74 77 80 88 89 89 83 80 95 113 122 129 133 135 133 130 128 122 122 124 107 98 94 94 82 75 102 139 131 132 119 123 112 119 115 111 129 134 151 167 175 169 171 182 172 182 182
37 93 95 96 95 87 89 90 92 95 104 115 124 130 134 135 134 128 124 123 127 123 110 103 101 101 87 67 33 87 95 106 105 111 101 98 101 110 112 101 125 181 168 156 163 168 159 166 157
14 37 119 141 125 117 103 100 105 112 116 125 134 137 142 139 142 132 128 127 126 120 115 113 114 102 89 87 73 81 102 104 99 85 82 81 93 83 99 133 179 180 166 154 157 162 159 160 151
267 220 202 195 167 149 124 120 125 134 135 137 141 143 146 145 140 132 129 128 128 123 117 118 124 113 103 96 92 104 116 112 105 100 100 78 89 110 148 159 154 165 160 147 135 136 147 153 149
249 242 217 206 187 169 170 142 139 148 146 145 148 150 151 147 141 137 133 132 126 124 119 119 124 117 116 113 70 78 99 101 106 109 114 100 82 99 129 133 139 164 174 157 155 152 149 139 142
244 231 218 204 187 165 175 147 153 164 157 153 154 157 156 152 150 142 142 137 129 123 118 112 103 115 122 126 128 137 114 104 108 100 90 97 102 106 92 92 101 171 148 131 151 133 146 143 147
250 242 235 221 167 159 164 144 157 167 162 163 160 162 162 159 157 151 149 142 132 127 125 123 120 120 134 130 132 141 116 121 126 109 91 76 103 95 13 119 115 141 117 114 121 128 146 152 158
270 298 300 290 133 165 213 166 169 174 172 169 169 167 164 162 158 154 151 145 139 136 134 135 136 121 117 129 145 145 125 116 113 111 106 93 69 84 49 47 83 111 129 144 145 129 148 158 145
258 255 259 263 250 224 206 248 208 181 187 180 175 168 164 162 157 155 155 153 147 145 144 144 146 139 138 140 136 155 159 149 125 107 120 115 99 87 87 63 69 96 114 116 118 125 135 158 149
256 253 254 271 293 261 222 241 237 192 197 182 172 170 169 169 164 161 162 162 156 152 155 155 147 145 153 158 149 152 139 113 106 126 119 112 102 99 64 74 53 76 94 109 133 123 138 150 158
260 261 259 255 261 256 245 243 209 181 191 188 178 177 174 171 168 167 168 166 162 158 155 147 148 150 156 163 162 164 135 126 132 128 128 137 143 115 102 96 75 81 83 110 159 114 108 131 168
267 267 269 277 274 274 256 249 186 176 188 181 184 182 174 172 169 169 169 167 167 164 159 154 151 155 156 155 156 162 148 152 137 129 137 145 143 142 113 109 111 114 101 104 79 82 235 227 233
257 268 264 262 266 264 268 268 198 190 179 178 184 180 173 174 168 166 163 166 172 167 163 158 152 157 162 166 165 162 164 148 129 135 148 158 144 153 139 140 141 142 136 161 167 187 215 237 273
243 253 257 250 243 250 253 257 193 166 162 170 181 179 169 173 165 165 164 170 171 169 164 156 155 162 169 171 174 171 179 175 176 185 199 178 156 157 160 157 168 174 171 202 187 207 217 219 229
242 246 251 264 265 257 238 249 140 155 158 162 172 177 170 171 165 165 168 171 174 170 163 158 160 166 172 176 176 175 180 195 193 194 211 199 179 163 137 146 181 189 192 207 196 221 207 195 207
244 249 258 264 273 275 248 238 167 199 166 166 170 171 169 170 163 169 170 172 174 171 168 167 165 167 172 174 171 175 184 191 181 190 200 187 163 139 129 163 170 182 204 220 220 223 228 201 210
246 260 269 268 281 282 259 234 226 180 202 171 172 168 165 165 161 161 164 168 169 168 168 170 167 168 172 174 183 180 184 182 181 202 201 165 114 81 122 172 174 197 255 243 234 236 226 213 213
226 238 251 279 280 277 270 252 186 185 188 192 179 168 158 169 163 162 162 161 164 166 166 165 166 166 171 176 181 176 176 181 182 191 190 168 152 154 167 210 229 237 253 257 252 243 239 234 225
248 248 246 255 266 272 275 264 165 171 183 176 174 158 156 170 168 162 159 154 157 159 162 165 166 170 172 172 174 178 176 178 181 186 179 174 177 180 183 192 222 248 260 266 255 248 235 231 230